Location: Mahannah Oil Field
(37.4664°N, 96.6003°W)
Time: 23:20:03
(UTC+00:00)

Transit 2A Rocket - Pass Details

Date: 30 January 2021
Orbit: 594 x 908 km, 66.7° (Epoch: 05 March)

Event Time Altitude Azimuth Distance (km) Brightness Sun altitude
Rises 18:25:59 0° 257° (WSW) 3,292 8.4 35.0°
Reaches altitude 10° 18:29:47 10° 283° (WNW) 2,290 7.4 35.0°
Maximum altitude 18:32:21 14° 313° (NW) 2,000 6.9 35.1°
Drops below altitude 10° 18:34:50 10° 343° (NNW) 2,190 7.0 35.1°
Sets 18:38:19 0° 10° (N) 3,039 7.6 35.1°
